Regional Weather Roundup
Issued by NWS

Home | Current Version | Previous Version | Graphics & Text | Print | Product List | Glossary On
Versions: 1 2 3 4 5 6 7 8 9 10 11 12 13 14 15 16 17 18 19 20 21 22 23 24 25 26 27 28 29 30 31 32 33 34 35 36 37 38 39 40 41 42 43 44 45 46 47 48 49 50
000
ASUS43 KTOP 281459
RWRKS

WEATHER ROUNDUP FOR KANSAS
NATIONAL WEATHER SERVICE GOODLAND KS
1000 AM CDT TUE MAR 28 2017

NOTE:  "FAIR" INDICATES FEW OR NO CLOUDS BELOW 12,000 FEET WITH NO
SIGNIFICANT WEATHER AND/OR OBSTRUCTIONS TO VISIBILITY.

KSZ001>006-013>018-027>032-041>047-281600-
NORTHWEST KANSAS

CITY           SKY/WX    TMP DP  RH WIND       PRES   REMARKS
GOODLAND       LGT RAIN  45  45 100 SE20      29.90S FOG
HAYS             N/A     46  45  96 E10       30.01S FOG
HILL CITY      LGT RAIN  47  47 100 E8        30.00F FOG
RUSSELL        CLOUDY    48  46  93 E7        30.01F FOG
$$

KSZ061>065-074>080-084>089-281600-
SOUTHWEST KANSAS

CITY           SKY/WX    TMP DP  RH WIND       PRES   REMARKS
DODGE CITY     CLOUDY    47  45  93 E16       29.94F FOG
ELKHART          N/A     45  39  79 SE9         N/A
GARDEN CITY    CLOUDY    46  45  96 E23       29.89F FOG
GREAT BEND     CLOUDY    49  44  83 E13       30.00F
LIBERAL        CLOUDY    46  41  81 E17       29.87F VSB 1/4
$$

KSZ066>073-081>083-090>101-281600-
SOUTHEAST KANSAS

CITY           SKY/WX    TMP DP  RH WIND       PRES   REMARKS
CHANUTE        CLOUDY    53  46  77 NE8       30.06S
COFFEYVILLE    CLOUDY    53  48  83 E8        30.04S
HUTCHINSON     CLOUDY    52  45  77 E12       30.02F
MEDICINE LODGE   N/A     49  45  86 E10       29.98F
NEWTON         CLOUDY    50  47  89 E9        30.04S
PARSONS        CLOUDY    52  47  83 E6        30.06S
WICHITA INTL   CLOUDY    51  45  79 E10       30.01F
WICHITA JABRA  CLOUDY    50  45  83 E13       30.02F
WINFIELD       CLOUDY    51  46  83 E9        30.02F
$$

KSZ007>012-019>026-033>040-048>060-102>105-281600-
NORTHEAST KANSAS

CITY           SKY/WX    TMP DP  RH WIND       PRES   REMARKS
CONCORDIA      CLOUDY    45  44  97 E7        30.06R
EMPORIA        CLOUDY    50  47  89 E10       30.06S
LAWRENCE       CLOUDY    50  48  93 N6        30.09R
MANHATTAN      CLOUDY    50  44  80 E5        30.08R
OLATHE IND     CLOUDY    49  47  93 NE5       30.09R FOG
OLATHE EXE     CLOUDY    48  48 100 NE3       30.08R FOG
SALINA         CLOUDY    54  45  71 E12       30.05R
TOPEKA BILLARD CLOUDY    50  46  86 E7        30.08R
TOPEKA FORBES  CLOUDY    52  46  80 E7        30.08R
$$



USA.gov is the U.S. government's official web portal to all federal, state and local government web resources and services.